Home   Weather   Gary   Past weeks

Flag for USA Past Weather in Gary, Indiana, USA — Yesterday and Last 2 Weeks

Now
46 °F

Light rain. Low clouds.


Feels Like: 41 °F
Forecast: 47 / 64 °F
Wind: 8 mph from Northeast

Location: Lansing Municipal Airport

Current Time: Apr 30, 2017 at 4:08:02 am

Latest Report: Apr 30, 2017 at 3:35 am


Visibility: 4 mi

Pressure: 29.92 "Hg

Humidity: 100%

Dew Point: 46 °F

Location of GaryLocation

Past Weather in Gary — Graph

°F

Gary Temperature Yesterday

Maximum temperature yesterday: 48 °F (at 12:15 am)
Minimum temperature yesterday: 41 °F (at 2:35 pm)
Average temperature yesterday: 45 °F

High & Low Weather Summary for the Past Weeks

 TemperatureHumidityPressure
High80 °F (Apr 15, 3:15 pm)100% (Apr 16, 5:15 am)30.21 "Hg (Apr 16, 5:15 am)
Low32 °F (Apr 23, 6:35 am)28% (Apr 23, 12:55 pm)29.32 "Hg (Apr 27, 5:55 am)
Average57 °F73%29.94 "Hg
* Reported Apr 15 2:15 am — Apr 30 2:35 am, Gary, Weather by CustomWeather, © 2017

Note: Actual official high and low records may vary slightly from our data, if they occured in-between our weather recording intervals... More about our weather records

Advertising

Gary Weather History for the Previous 24 Hours

Scroll right to see more
 ConditionsComfort  
Time TempWeatherWind HumidityBarometerVisibility
2:35 am
Sun, Apr 30
46 °FLight rain. Low clouds.7 mph100%29.92 "Hg7 mi
2:15 am46 °FDrizzle. Low clouds.5 mph100%29.93 "Hg5 mi
1:55 am46 °FLight rain. Low clouds.5 mph100%29.94 "Hg5 mi
1:35 am46 °FLow clouds.5 mph100%29.94 "Hg7 mi
1:15 am47 °FLow clouds.12 mph99%29.91 "Hg10 mi
12:55 am47 °FFog.13 mph100%29.92 "Hg5 mi
12:35 am47 °FFog.8 mph100%29.92 "Hg3 mi
12:15 am47 °FDrizzle. Low clouds.10 mph100%29.93 "Hg3 mi
11:55 pm
Sat, Apr 29
47 °FDrizzle. Low clouds.10 mph100%29.94 "Hg2 mi
11:35 pm47 °FLight rain. Low clouds.8 mph100%29.96 "Hg2 mi
11:15 pm47 °FRain. Mostly cloudy.6 mph100%29.96 "Hg3 mi
10:55 pm47 °FRain. Mostly cloudy.6 mph100%29.97 "Hg3 mi
10:35 pm47 °FRain. Overcast.3 mph99%29.98 "Hg4 mi
10:15 pm47 °FLight rain. Mostly cloudy.3 mph100%29.98 "Hg10 mi
9:55 pm46 °FLight rain. Low clouds.6 mph100%30.00 "Hg10 mi
9:35 pm46 °FLight rain. Low clouds.23 mph100%29.91 "Hg10 mi
9:15 pm45 °FRain. Low clouds.30 mph100%29.88 "Hg3 mi
8:55 pm45 °FThundershowers. Low clouds.25 mph100%29.91 "Hg2 mi
8:35 pm45 °FThundershowers. Low clouds.23 mph100%29.97 "Hg4 mi
8:15 pm44 °FThundershowers. Low clouds.22 mph100%29.98 "Hg4 mi
7:55 pm44 °FThundershowers. Low clouds.23 mph100%30.01 "Hg4 mi
7:15 pm43 °FStrong thunderstorms. Low clouds.16 mph100%30.07 "Hg3 mi
6:55 pm42 °FThundershowers. Low clouds.14 mph100%30.09 "Hg2 mi
6:35 pm43 °FLight rain. Low clouds.9 mph100%30.08 "Hg10 mi
6:15 pm42 °FLight rain. Low clouds.16 mph100%30.07 "Hg10 mi
5:55 pm42 °FThunderstorms. Low clouds.14 mph100%30.08 "Hg5 mi
5:35 pm42 °FThundershowers. Fog.14 mph100%30.09 "Hg5 mi
5:15 pm42 °FLight rain. Low clouds.13 mph99%30.08 "Hg4 mi
4:55 pm42 °FLow clouds.13 mph99%30.08 "Hg7 mi
4:35 pm42 °FLow clouds.14 mph99%30.08 "Hg10 mi
4:15 pm42 °FThundershowers. Low clouds.12 mph99%30.11 "Hg10 mi
3:55 pm41 °FLow clouds.10 mph98%30.10 "Hg10 mi
3:35 pm41 °FLight rain. Mostly cloudy.16 mph98%30.11 "Hg10 mi
2:35 pm41 °FLight rain. Low clouds.14 mph97%30.16 "Hg10 mi
2:15 pm42 °FLight rain. Mostly cloudy.14 mph97%30.07 "Hg10 mi
1:55 pm42 °FLight rain. Mostly cloudy.9 mph97%30.13 "Hg7 mi
1:35 pm43 °FRain. Cloudy.10 mph97%30.13 "Hg10 mi
1:15 pm43 °FLight rain. More clouds than sun.13 mph97%30.15 "Hg7 mi
12:55 pm43 °FRain. More clouds than sun.13 mph97%30.17 "Hg7 mi
12:35 pm43 °FLight rain. Mostly cloudy.10 mph96%30.18 "Hg4 mi
11:55 am43 °FRain. More clouds than sun.14 mph92%30.18 "Hg7 mi
11:35 am44 °FRain. Mostly cloudy.14 mph84%30.19 "Hg10 mi
11:15 am45 °FMore clouds than sun.18 mph80%30.16 "Hg10 mi
10:55 am45 °FOvercast.17 mph80%30.14 "Hg10 mi
10:15 am45 °FPartly sunny.17 mph80%30.13 "Hg10 mi
9:55 am45 °FOvercast.22 mph79%30.10 "Hg10 mi
9:35 am46 °FOvercast.20 mph80%30.11 "Hg10 mi
9:15 am45 °FOvercast.17 mph81%30.13 "Hg10 mi
8:55 am46 °FOvercast.15 mph81%30.13 "Hg10 mi
8:35 am46 °FOvercast.18 mph79%30.12 "Hg10 mi
8:15 am46 °FOvercast.16 mph80%30.13 "Hg10 mi
7:35 am45 °FOvercast.14 mph85%30.11 "Hg10 mi
7:15 am45 °FOvercast.12 mph87%30.11 "Hg10 mi
6:55 am45 °FOvercast.14 mph86%30.14 "Hg10 mi
6:35 am45 °FOvercast.17 mph87%30.12 "Hg10 mi
6:15 am45 °FMore clouds than sun.13 mph88%30.12 "Hg10 mi
5:55 am46 °FMore clouds than sun.14 mph86%30.12 "Hg10 mi
5:35 am46 °FOvercast.20 mph84%30.10 "Hg10 mi
5:15 am46 °FOvercast.15 mph86%30.09 "Hg10 mi
4:55 am46 °FOvercast.14 mph86%30.07 "Hg10 mi
4:35 am46 °FOvercast.20 mph86%30.03 "Hg10 mi
4:15 am46 °FOvercast.17 mph89%30.02 "Hg10 mi
Weather by CustomWeather, © 2017

See weather overviewHow to use our weather pages